Location: Bidwell Hollow
(37.7387°N, 90.1707°W)
Time: 07:30:12
(UTC+00:00)

Envisat - Pass Details

Date: 07 October 2024
Orbit: 762 x 763 km, 98.3° (Epoch: 03 November)

Event Time Altitude Azimuth Distance (km) Brightness Sun altitude
Rises 08:37:10 0° 20° (NNE) 3,232 6.8 -40.1°
Reaches altitude 10° 08:39:35 10° 27° (NNE) 2,301 6.0 -39.7°
Enters shadow 08:40:47 17° 32° (NNE) 1,870 5.5 -39.5°
